Find Local Weather

World > North America > United States > Virginia

Virginia Beach, Virginia Regional Weather

Lat: 36.85N, Lon: 75.98W
Wx Zone: VAZ098
Warning FLW WEATHER ALERT - (More Info. Click Here) Warning
Feedback
Expires:201808171200;;198552
ASUS41 KAKQ 171114
RWRAKQ

REGIONAL WEATHER ROUNDUP
NATIONAL WEATHER SERVICE WAKEFIELD VA
700 AM EDT FRI AUG 17 2018

Note: "fair" indicates few or no clouds below 12,000 feet with no
significant weather and/or obstructions to visibility. * = Denotes
station may not report precipitation (e.g., rain,snow,etc.),
thunder or fog.


VAZ088>098-171200-
SOUTHEAST VIRGINIA
  
CITY           SKY/WX    TMP DP  RH WIND       PRES   REMARKS
NORFOLK        FAIR      78  73  84 SW7       30.11S                  
VIRGINIA BEACH FAIR      76  70  82 SW7       30.11R                  
NORFOLK NAVAL  FAIR      77  72  84 SW3       30.13R                  
WEST POINT*    FAIR      74  74  98 SE3       30.13R                  
SALUDA*        FAIR      75  75 100 SW6       30.11R                  
NEWPORT NEWS   FAIR      77  73  87 SW6       30.12R                  
LANGLEY AFB    PTCLDY    76  74  96 SW5       30.11R                  
FORT EUSTIS    FAIR      77  74  90 W3        30.10R                  
WILLIAMSBURG*  FAIR      77  73  88 CALM      30.12R                  
HR EXEC AP*    FAIR      71  70  96 CALM      30.13R FOG              
FRANKLIN*      FAIR      73  73  98 CALM      30.13R FOG              
US460-WAKEFLD  FAIR      74  72  93 CALM      30.12R FOG              
$$


SKY/WX - Weather  TMP - Temperature  DP - Dewpoint  RH - Relative Humidity
WIND - Wind Direction/Speed PRES - Barometric Pressure